Location: Table Mountain
(47.2500°N, 120.5778°W)
Time: 12:46:42
(UTC-08:00)

Envisat - Pass Details

Date: 07 October 2017
Orbit: 764 x 766 km, 98.2° (Epoch: 13 December)

Event Time Altitude Azimuth Distance (km) Brightness Sun altitude
Exits shadow 19:58:40 24° 117° (ESE) 1,541 4.0 -16.0°
Maximum altitude 20:01:04 38° 67° (ENE) 1,151 3.5 -16.4°
Drops below altitude 10° 20:05:45 10° 0° (N) 2,313 5.6 -17.2°
Sets 20:08:11 0° 353° (N) 3,244 6.5 -17.6°
